Location: Blackfoot
(53.5367°N, 112.7800°W)
Time: 08:29:20
(UTC-06:00)

Amateur Radio Satellites - All Passes

Search period start: 30 May 2015 07:59
Search period end: 31 May 2015 07:59
Location: Blackfoot, 53.5367°N, 112.7800°W

Satellite Date Start Highest point End Downlink Frequencies (MHz)
Time Altitude Azimuth
STRAND 1 30 May 08:22:20 08:27:00 35° 265° (W) 08:31:41 437.568
AO-7 30 May 08:37:40 08:44:21 27° 319° (NW) 08:50:54 29.400- 29.500
CUTE-I 30 May 08:38:58 08:44:19 67° 291° (WNW) 08:49:39 437.470
PRISM 30 May 08:41:26 08:44:12 17° 271° (W) 08:46:51 437.425
YUBILEINY 30 May 08:46:18 08:55:05 80° 283° (WNW) 09:03:52 435.215
M-CUBED/EXP-1 PRIME 30 May 08:48:23 08:51:08 17° 262° (W) 08:53:39 437.505
PCSat 30 May 08:51:15 08:56:39 60° 43° (NE) 09:02:02 145.827
AUBIESAT-1 30 May 08:52:59 08:55:42 17° 262° (W) 08:58:12 437.475
CANX-2 30 May 08:59:20 09:01:15 13° 84° (E) 09:03:22 2200.000
SO-50 30 May 09:00:31 09:04:46 28° 18° (NNE) 09:09:04 436.795
Cubesat XI-IV 30 May 09:00:51 09:06:01 47° 295° (WNW) 09:11:09 437.490
CUTE 1.7 + AOD 2 30 May 09:02:22 09:04:13 13° 84° (E) 09:06:13 437.475
UNISAT 6 30 May 09:05:28 09:06:55 12° 50° (NE) 09:08:31 437.425
RS-15 30 May 09:08:18 09:18:19 46° 114° (ESE) 09:28:47 29.354- 29.394
HO-68 30 May 09:11:31 09:17:11 25° 88° (E) 09:23:01 435.675
GOMX 1 30 May 09:13:03 09:17:45 30° 90° (E) 09:22:17 467.674
AIST 1 30 May 09:13:34 09:17:02 23° 273° (W) 09:20:25
SEEDS 30 May 09:18:41 09:21:06 15° 86° (E) 09:23:38 437.485
COMPASS 1 30 May 09:26:00 09:28:17 15° 86° (E) 09:30:43 437.405
BRITE-PL 30 May 09:29:01 09:34:38 57° 99° (E) 09:40:00 437.365/2234.400
Cosmos 2504 30 May 09:34:47 09:41:30 32° 84° (E) 09:48:01 435.465 / 435.565
AAUSAT CUBESAT 2 30 May 09:34:48 09:37:15 15° 87° (E) 09:39:49 437.432
ANTELSAT 30 May 09:46:22 09:49:56 23° 59° (ENE) 09:53:30 437.575/2403.000
Cosmos 2491 30 May 09:48:11 09:53:02 16° 291° (WNW) 09:57:27 435.465 / 435.565
DOVE 4 30 May 09:55:44 10:00:39 44° 96° (E) 10:05:19 437.250
QB50P1 30 May 09:56:55 09:59:12 15° 54° (NE) 10:01:37 145.935-145.965
POLYITAN 1 30 May 10:00:44 10:03:16 16° 55° (NE) 10:05:56 437.675
UWE-3 30 May 10:13:47 10:16:14 15° 85° (E) 10:18:47 435.000/436.395/437.385
FUNcube-1 30 May 10:14:25 10:15:52 12° 83° (E) 10:17:32 145.935
TIGRISAT 30 May 10:16:33 10:20:47 36° 65° (ENE) 10:25:00 435.000
CUTE-I 30 May 10:20:17 10:23:34 16° 311° (NW) 10:26:43 437.470
NANOSAT C BR1 30 May 10:25:30 10:28:52 23° 60° (ENE) 10:32:19 145.865
AO-7 30 May 10:30:40 10:34:25 14° 346° (NNW) 10:38:03 29.400- 29.500
CANX-2 30 May 10:33:39 10:37:54 88° 286° (WNW) 10:42:07 2200.000
PCSat 30 May 10:35:00 10:39:52 34° 245° (WSW) 10:44:39 145.827
QB50P2 30 May 10:35:59 10:39:41 29° 63° (ENE) 10:43:25 145.880/145.840
CUTE 1.7 + AOD 2 30 May 10:36:36 10:40:51 90° 25° (NNE) 10:45:04 437.475
UNISAT 6 30 May 10:38:19 10:42:52 56° 69° (ENE) 10:47:22 437.425
SO-50 30 May 10:41:08 10:46:07 68° 41° (NE) 10:51:04 436.795
Cubesat XI-IV 30 May 10:42:53 10:45:01 12° 316° (NW) 10:46:58 437.490
CINEMA 3 30 May 10:43:27 10:48:10 58° 100° (E) 10:52:39 145.822/145.860
DUCHIFAT 1 30 May 10:45:52 10:49:42 33° 64° (ENE) 10:53:34 145.980
YUBILEINY 30 May 10:46:32 10:53:36 26° 310° (NW) 11:00:28 435.215
POPSAT HIP 1 30 May 10:47:02 10:50:55 34° 65° (ENE) 10:54:51 437.405
UKube-1 30 May 10:50:17 10:52:00 12° 84° (E) 10:53:54 .
GOMX 1 30 May 10:50:53 10:56:11 54° 292° (WNW) 11:01:11 467.674
BUGSAT 1 30 May 10:52:04 10:55:38 28° 63° (ENE) 10:59:18 437.445
SEEDS 30 May 10:53:16 10:57:29 75° 286° (WNW) 11:01:39 437.485
ZACube-1 30 May 10:55:01 10:58:44 27° 92° (E) 11:02:25 437.345
Oscar 11 30 May 10:58:31 11:02:42 46° 99° (E) 11:06:51 145.826/435.025
HO-68 30 May 10:58:39 11:05:53 85° 291° (WNW) 11:13:03 435.675
COMPASS 1 30 May 11:00:23 11:04:34 77° 287° (WNW) 11:08:42 437.405
DX 1 30 May 11:03:47 11:06:42 18° 88° (E) 11:09:44 434.975-435.025
BRITE-PL 30 May 11:07:51 11:12:53 33° 299° (WNW) 11:17:41 437.365/2234.400
AAUSAT CUBESAT 2 30 May 11:09:15 11:13:24 72° 287° (WNW) 11:17:32 437.432
CUBEBUG 2 30 May 11:09:43 11:14:08 55° 100° (E) 11:18:24 437.445
DELFI C3 30 May 11:11:06 11:14:59 45° 99° (E) 11:18:52 145.870
CUSAT 1 30 May 11:17:33 11:20:45 13° 71° (ENE) 11:24:25 437.405
RS-15 30 May 11:19:11 11:30:11 76° 321° (NW) 11:41:40 29.354- 29.394
ANTELSAT 30 May 11:21:43 11:26:22 65° 258° (WSW) 11:30:56 437.575/2403.000
Cosmos 2504 30 May 11:26:21 11:34:26 71° 285° (WNW) 11:41:59 435.465 / 435.565
GONETS M04 30 May 11:26:29 11:29:29 13° 66° (ENE) 11:33:01
QB50P1 30 May 11:30:08 11:34:26 81° 74° (ENE) 11:38:47 145.935-145.965
VELOX 1 30 May 11:32:33 11:35:39 18° 88° (E) 11:38:51 145.980
DOVE 4 30 May 11:33:37 11:38:19 35° 297° (WNW) 11:42:45 437.250
POLYITAN 1 30 May 11:34:16 11:38:37 89° 76° (ENE) 11:42:59 437.675
FUNcube-1 30 May 11:48:41 11:53:04 82° 104° (ESE) 11:57:18 145.935
UWE-3 30 May 11:49:01 11:53:28 81° 286° (WNW) 11:57:45 435.000/436.395/437.385
ESTCUBE 1 30 May 11:50:24 11:53:28 18° 88° (E) 11:56:38 437.505/2401.250
TIGRISAT 30 May 11:53:13 11:57:33 36° 264° (W) 12:01:48 435.000
HUMSAT D 30 May 11:53:40 11:57:44 47° 99° (E) 12:01:43 437.325/437.525
50 SAT 30 May 11:56:46 12:00:13 30° 95° (E) 12:03:39 437.505
NANOSAT C BR1 30 May 12:00:13 12:04:26 55° 259° (W) 12:08:41 145.865
AISAT 30 May 12:04:59 12:09:08 35° 96° (E) 12:13:17 437.250
Oscar 19 30 May 12:06:05 12:09:18 17° 51° (NE) 12:12:38 437.125/150
CANX-2 30 May 12:10:49 12:13:15 15° 304° (NW) 12:15:35 2200.000
QB50P2 30 May 12:11:20 12:15:27 42° 262° (W) 12:19:35 145.880/145.840
CUTE 1.7 + AOD 2 30 May 12:13:43 12:16:12 15° 304° (NW) 12:18:36 437.475
UNISAT 6 30 May 12:16:10 12:19:59 24° 269° (W) 12:23:39 437.425
AO-7 30 May 12:20:01 12:23:45 14° 15° (NNE) 12:27:37 29.400- 29.500
CINEMA 3 30 May 12:21:08 12:25:03 25° 300° (WNW) 12:28:44 145.822/145.860
DUCHIFAT 1 30 May 12:21:30 12:25:29 36° 264° (W) 12:29:28 145.980
SO-50 30 May 12:22:06 12:26:23 29° 241° (WSW) 12:30:34 436.795
POPSAT HIP 1 30 May 12:22:49 12:26:47 35° 264° (W) 12:30:46 437.405
UKube-1 30 May 12:24:32 12:28:56 82° 105° (ESE) 12:33:18 .
BUGSAT 1 30 May 12:26:56 12:30:57 43° 262° (W) 12:35:02 437.445
GOMX 1 30 May 12:30:36 12:33:13 13° 313° (NW) 12:35:36 467.674
SEEDS 30 May 12:30:39 12:32:37 13° 306° (NW) 12:34:28 437.485
ITAMSAT 1 30 May 12:31:07 12:32:20 11° 44° (NE) 12:33:44 435.822/435.867
ZACube-1 30 May 12:31:09 12:35:17 42° 293° (WNW) 12:39:17 437.345
Oscar 11 30 May 12:35:03 12:38:41 26° 298° (WNW) 12:42:16 145.826/435.025
COMPASS 1 30 May 12:37:35 12:39:36 13° 305° (NW) 12:41:28 437.405
DX 1 30 May 12:39:04 12:43:29 71° 289° (WNW) 12:47:51 434.975-435.025
AAUSAT CUBESAT 2 30 May 12:46:33 12:48:21 12° 306° (NW) 12:50:01 437.432
DELFI C3 30 May 12:46:36 12:49:54 24° 298° (WNW) 12:53:07 145.870
CUBEBUG 2 30 May 12:46:54 12:50:33 24° 300° (WNW) 12:54:00 437.445
HO-68 30 May 12:47:03 12:52:51 27° 312° (NW) 12:58:29 435.675
DANDE 30 May 12:49:33 12:56:40 39° 87° (E) 13:04:25 436.750
CUSAT 1 30 May 12:54:12 13:01:44 48° 91° (E) 13:09:35 437.405
CUBEBUG 1 30 May 12:55:10 12:59:34 56° 101° (E) 13:03:57 437.445
ANTELSAT 30 May 13:03:23 13:04:08 10° 279° (W) 13:04:37 437.575/2403.000
VELOX 1 30 May 13:08:14 13:12:44 69° 288° (WNW) 13:17:11 145.980
QB50P1 30 May 13:08:23 13:10:56 15° 274° (W) 13:13:21 145.935-145.965
POLYITAN 1 30 May 13:12:57 13:15:13 14° 275° (W) 13:17:20 437.675
GONETS M04 30 May 13:15:55 13:24:15 50° 89° (E) 13:32:42
SPROUT 30 May 13:19:10 13:23:06 32° 95° (E) 13:27:01 437.525
Cosmos 2504 30 May 13:23:39 13:29:23 21° 310° (NW) 13:34:41 435.465 / 435.565
FUNcube-1 30 May 13:26:01 13:28:52 17° 304° (NW) 13:31:34 145.935
ESTCUBE 1 30 May 13:26:20 13:30:53 72° 288° (WNW) 13:35:24 437.505/2401.250
UWE-3 30 May 13:26:51 13:29:19 15° 306° (NW) 13:31:39 435.000/436.395/437.385
TISAT 1 30 May 13:27:18 13:31:02 29° 94° (E) 13:34:47 437.305
Gurwin Techsat 1B 30 May 13:27:55 13:32:03 24° 56° (NE) 13:36:17 435.225
HUMSAT D 30 May 13:29:50 13:33:16 25° 298° (WNW) 13:36:36 437.325/437.525
50 SAT 30 May 13:31:26 13:34:57 32° 294° (WNW) 13:38:24 437.505
RS-15 30 May 13:33:42 13:44:25 49° 353° (N) 13:55:37 29.354- 29.394
AISAT 30 May 13:41:36 13:45:45 36° 296° (WNW) 13:49:50 437.250
Oscar 19 30 May 13:42:44 13:47:55 75° 71° (ENE) 13:53:08 437.125/150
Cosmos 2499 30 May 13:55:33 14:00:06 18° 76° (ENE) 14:04:48 435.465 / 435.565
UKube-1 30 May 14:01:38 14:04:33 17° 304° (NW) 14:07:23 .
ITAMSAT 1 30 May 14:05:49 14:10:41 43° 64° (ENE) 14:15:37 435.822/435.867
AO-7 30 May 14:07:16 14:13:54 28° 42° (NE) 14:20:41 29.400- 29.500
DX 1 30 May 14:16:49 14:19:01 13° 308° (NW) 14:21:06 434.975-435.025
JAS-2 30 May 14:18:35 14:22:22 18° 52° (NE) 14:26:04 435.910
DANDE 30 May 14:31:31 14:39:31 70° 289° (WNW) 14:48:09 436.750
CUBEBUG 1 30 May 14:32:01 14:35:39 24° 300° (WNW) 14:39:12 437.445
ITUPSAT 1 30 May 14:34:19 14:38:18 26° 92° (E) 14:42:20 437.325
CUSAT 1 30 May 14:36:29 14:44:26 57° 293° (WNW) 14:52:32 437.405
HO-68 30 May 14:37:00 14:38:17 10° 337° (NNW) 14:39:22 435.675
BEESAT 30 May 14:39:21 14:43:29 29° 93° (E) 14:47:40 436.000
VELOX 1 30 May 14:46:18 14:48:33 13° 308° (NW) 14:50:40 145.980
SWISSCUBE 30 May 14:48:22 14:52:47 36° 96° (E) 14:57:13 437.505
SPROUT 30 May 14:55:13 14:59:14 37° 294° (WNW) 15:03:12 437.525
TISAT 1 30 May 15:02:54 15:06:56 40° 294° (WNW) 15:10:56 437.305
ESTCUBE 1 30 May 15:04:38 15:07:03 14° 307° (NW) 15:09:20 437.505/2401.250
Gurwin Techsat 1B 30 May 15:06:16 15:11:35 75° 255° (WSW) 15:16:57 435.225
GONETS M04 30 May 15:12:36 15:21:13 52° 293° (WNW) 15:29:49
HORYU 2 30 May 15:14:09 15:18:05 31° 63° (ENE) 15:22:03 437.375
KKS-1 30 May 15:16:54 15:19:16 14° 85° (E) 15:21:47 437.445
O/OREOS (USA 219) 30 May 15:17:14 15:20:41 22° 105° (ESE) 15:24:12 437.305
Oscar 19 30 May 15:23:56 15:27:53 21° 272° (W) 15:31:44 437.125/150
Cosmos 2499 30 May 15:44:23 15:52:10 73° 97° (E) 15:59:29 435.465 / 435.565
ITAMSAT 1 30 May 15:45:32 15:50:19 36° 264° (W) 15:55:06 435.822/435.867
RS-15 30 May 15:48:07 15:59:17 58° 25° (NNE) 16:11:00 29.354- 29.394
AO-7 30 May 15:57:23 16:05:40 77° 65° (ENE) 16:14:02 29.400- 29.500
JAS-2 30 May 16:00:39 16:06:52 75° 72° (ENE) 16:12:26 435.910
STARS 30 May 16:10:16 16:14:03 27° 93° (E) 16:17:53 437.465
ITUPSAT 1 30 May 16:11:50 16:16:31 54° 292° (WNW) 16:21:11 437.325
BEESAT 30 May 16:16:57 16:21:34 48° 293° (WNW) 16:26:09 436.000
DANDE 30 May 16:17:47 16:24:29 25° 313° (NW) 16:31:09 436.750
CUSAT 1 30 May 16:23:09 16:29:06 20° 317° (NW) 16:34:44 437.405
SWISSCUBE 30 May 16:26:15 16:30:42 39° 296° (WNW) 16:35:07 437.505
Gurwin Techsat 1B 30 May 16:49:44 16:52:37 14° 277° (W) 16:55:16 435.225
CUTE-I 30 May 16:50:18 16:53:29 17° 50° (NE) 16:56:49 437.470
HORYU 2 30 May 16:50:23 16:54:39 41° 262° (W) 16:58:54 437.375
YUBILEINY 30 May 16:51:58 16:58:37 24° 49° (NE) 17:05:28 435.215
KKS-1 30 May 16:52:05 16:56:38 88° 286° (WNW) 17:01:07 437.445
O/OREOS (USA 219) 30 May 16:55:18 16:59:46 60° 304° (NW) 17:04:15 437.305
BEESAT 3 30 May 17:06:21 17:07:23 11° 111° (ESE) 17:08:36 437.485
Cubesat XI-IV 30 May 17:11:08 17:15:06 22° 54° (NE) 17:19:11 437.490
MOZHAYETS 4 30 May 17:14:14 17:17:38 21° 89° (E) 17:21:08
GONETS M04 30 May 17:15:10 17:20:48 17° 321° (NW) 17:26:10
Cosmos 2499 30 May 17:39:16 17:46:03 31° 300° (WNW) 17:52:23 435.465 / 435.565
STARS 30 May 17:46:27 17:50:43 45° 293° (WNW) 17:54:54 437.465
JAS-2 30 May 17:47:42 17:52:34 23° 270° (W) 17:56:57 435.910
ITUPSAT 1 30 May 17:51:39 17:53:30 12° 312° (NW) 17:55:10 437.325
AO-7 30 May 17:52:01 17:59:21 33° 268° (W) 18:06:36 29.400- 29.500
BEESAT 30 May 17:57:11 17:58:25 11° 313° (NW) 17:59:29 436.000
BEESAT 2 30 May 17:58:01 18:01:26 26° 120° (ESE) 18:04:55 435.950
RS-15 30 May 18:01:02 18:12:29 75° 233° (SW) 18:24:25 29.354- 29.394
HO-68 30 May 18:03:56 18:07:18 14° 32° (NNE) 18:10:51 435.675
DANDE 30 May 18:09:22 18:11:15 11° 339° (NNW) 18:12:52 436.750
AIST 2 30 May 18:15:51 18:18:03 14° 113° (ESE) 18:20:22 435.215
CUTE-I 30 May 18:27:28 18:32:45 69° 70° (ENE) 18:38:06 437.470
KKS-1 30 May 18:29:49 18:32:41 17° 305° (NW) 18:35:25 437.445
O/OREOS (USA 219) 30 May 18:37:22 18:40:11 16° 327° (NNW) 18:42:54 437.305
BEESAT 3 30 May 18:40:34 18:44:38 65° 130° (SE) 18:48:45 437.485
YUBILEINY 30 May 18:48:31 18:57:17 75° 76° (ENE) 19:05:59 435.215
Cubesat XI-IV 30 May 18:49:20 18:54:40 84° 253° (WSW) 19:00:05 437.490
MOZHAYETS 4 30 May 18:50:47 18:55:19 63° 289° (WNW) 18:59:51
GOMX 1 30 May 18:51:52 18:54:43 15° 49° (NE) 18:57:46 467.674
Cosmos 2491 30 May 19:02:14 19:10:01 38° 84° (E) 19:17:58 435.465 / 435.565
CUBESAT XI-V 30 May 19:04:16 19:08:03 24° 90° (E) 19:11:55 437.345
BRITE-PL 30 May 19:08:39 19:12:59 25° 57° (ENE) 19:17:34 437.365/2234.400
Cosmos 2504 30 May 19:18:15 19:22:51 18° 47° (NE) 19:27:36 435.465 / 435.565
DOVE 4 30 May 19:31:20 19:34:56 19° 54° (NE) 19:38:40 437.250
BEESAT 2 30 May 19:35:09 19:39:15 60° 319° (NW) 19:43:23 435.950
HO-68 30 May 19:46:46 19:53:16 39° 56° (NE) 19:59:51 435.675
AIST 2 30 May 19:51:42 19:55:59 77° 133° (SE) 20:00:18 435.215
CANX-2 30 May 19:57:57 20:01:15 22° 61° (ENE) 20:04:36 2200.000
CUTE 1.7 + AOD 2 30 May 20:00:53 20:04:08 22° 61° (ENE) 20:07:27 437.475
CUTE-I 30 May 20:09:09 20:13:24 23° 271° (W) 20:17:35 437.470
AIST 1 30 May 20:12:28 20:15:38 21° 87° (E) 20:18:55
RS-15 30 May 20:14:18 20:23:18 26° 257° (WSW) 20:32:07 29.354- 29.394
CINEMA 3 30 May 20:15:19 20:19:03 22° 58° (ENE) 20:22:51 145.822/145.860
PRISM 30 May 20:15:30 20:19:29 43° 99° (E) 20:23:29 437.425
SEEDS 30 May 20:16:34 20:20:00 25° 62° (ENE) 20:23:29 437.485
BEESAT 3 30 May 20:19:12 20:22:55 31° 331° (NNW) 20:26:38 437.485
COMPASS 1 30 May 20:23:03 20:26:23 24° 62° (ENE) 20:29:47 437.405
M-CUBED/EXP-1 PRIME 30 May 20:23:05 20:24:27 12° 95° (E) 20:25:57 437.505
ZACube-1 30 May 20:25:10 20:25:34 10° 50° (NE) 20:26:08 437.345
STRAND 1 30 May 20:25:35 20:30:37 50° 100° (E) 20:35:37 437.568
Oscar 11 30 May 20:25:46 20:28:01 14° 55° (NE) 20:30:23 145.826/435.025
GOMX 1 30 May 20:26:34 20:31:50 59° 69° (ENE) 20:37:17 467.674
AUBIESAT-1 30 May 20:27:14 20:28:30 12° 95° (E) 20:29:53 437.475
MOZHAYETS 4 30 May 20:29:45 20:31:45 13° 309° (NW) 20:33:36
AAUSAT CUBESAT 2 30 May 20:31:26 20:34:49 25° 62° (ENE) 20:38:15 437.432
Cubesat XI-IV 30 May 20:32:24 20:35:43 16° 276° (W) 20:38:51 437.490
DELFI C3 30 May 20:32:45 20:33:55 11° 54° (NE) 20:35:15 145.870
CUBEBUG 2 30 May 20:38:58 20:42:11 19° 57° (ENE) 20:45:29 437.445
CUBESAT XI-V 30 May 20:41:13 20:45:51 56° 290° (WNW) 20:50:28 437.345
BRITE-PL 30 May 20:45:34 20:50:58 77° 257° (WSW) 20:56:41 437.365/2234.400
YUBILEINY 30 May 20:46:00 20:53:28 33° 279° (W) 21:00:45 435.215
Cosmos 2491 30 May 20:57:43 21:06:30 66° 287° (WNW) 21:15:21 435.465 / 435.565
DOVE 4 30 May 21:06:43 21:12:00 83° 74° (ENE) 21:17:23 437.250
Cosmos 2504 30 May 21:10:48 21:18:02 65° 74° (ENE) 21:25:10 435.465 / 435.565
BEESAT 2 30 May 21:14:48 21:18:05 22° 342° (NNW) 21:21:21 435.950
FUNcube-1 30 May 21:15:14 21:18:47 23° 60° (ENE) 21:22:23 145.935
UWE-3 30 May 21:16:18 21:20:17 29° 63° (ENE) 21:24:16 435.000/436.395/437.385
HUMSAT D 30 May 21:18:18 21:20:25 14° 55° (NE) 21:22:38 437.325/437.525
GONETS M04 30 May 21:21:41 21:25:13 13° 29° (NNE) 21:29:04
AIST 2 30 May 21:31:10 21:34:59 29° 334° (NNW) 21:38:47 435.215
CANX-2 30 May 21:32:42 21:36:53 55° 260° (W) 21:41:05 2200.000
HO-68 30 May 21:33:40 21:40:48 62° 257° (WSW) 21:47:56 435.675
AISAT 30 May 21:35:11 21:37:18 14° 52° (NE) 21:39:34 437.250
CUTE 1.7 + AOD 2 30 May 21:35:34 21:39:46 57° 260° (W) 21:43:58 437.475
DANDE 30 May 21:41:45 21:46:21 16° 35° (NE) 21:50:45 436.750
CUSAT 1 30 May 21:44:34 21:49:02 17° 38° (NE) 21:53:12 437.405
AIST 1 30 May 21:48:47 21:52:58 52° 286° (WNW) 21:57:13
UKube-1 30 May 21:50:25 21:53:56 25° 60° (ENE) 21:57:31 .
CINEMA 3 30 May 21:50:42 21:55:46 79° 257° (WSW) 22:00:48 145.822/145.860
PRISM 30 May 21:51:15 21:54:47 27° 298° (WNW) 21:58:17 437.425
SEEDS 30 May 21:51:31 21:55:36 47° 261° (W) 21:59:41 437.485
M-CUBED/EXP-1 PRIME 30 May 21:56:30 21:59:48 63° 295° (WNW) 22:03:05 437.505
ZACube-1 30 May 21:56:36 22:01:01 49° 69° (ENE) 22:05:24 437.345
COMPASS 1 30 May 21:57:46 22:01:50 49° 261° (W) 22:05:54 437.405
BEESAT 3 30 May 21:59:12 22:02:01 17° 354° (N) 22:04:50 437.485
Oscar 11 30 May 21:59:14 22:03:34 80° 74° (ENE) 22:07:55 145.826/435.025
AUBIESAT-1 30 May 22:00:29 22:03:47 66° 295° (WNW) 22:07:05 437.475
DELFI C3 30 May 22:04:21 22:08:20 67° 72° (ENE) 22:12:21 145.870
DX 1 30 May 22:05:05 22:09:01 34° 64° (ENE) 22:13:01 434.975-435.025
STRAND 1 30 May 22:05:06 22:09:40 32° 299° (WNW) 22:14:11 437.568
GOMX 1 30 May 22:05:39 22:10:19 29° 270° (W) 22:15:02 467.674
AAUSAT CUBESAT 2 30 May 22:06:13 22:10:14 46° 261° (W) 22:14:16 437.432
CUBEBUG 2 30 May 22:13:34 22:18:22 85° 256° (WSW) 22:23:05 437.445
CUBESAT XI-V 30 May 22:20:37 22:22:25 12° 310° (NW) 22:24:02 437.345
CUBEBUG 1 30 May 22:23:00 22:25:53 18° 56° (ENE) 22:28:54 437.445
BRITE-PL 30 May 22:27:15 22:30:33 16° 280° (W) 22:33:43 437.365/2234.400
VELOX 1 30 May 22:35:56 22:39:59 36° 64° (ENE) 22:44:06 145.980
DOVE 4 30 May 22:46:34 22:50:26 20° 275° (W) 22:54:12 437.250
50 SAT 30 May 22:47:13 22:50:59 43° 69° (ENE) 22:54:46 437.505
SPROUT 30 May 22:47:14 22:48:12 11° 51° (NE) 22:49:21 437.525
FUNcube-1 30 May 22:50:17 22:54:49 60° 259° (W) 22:59:18 145.935
HUMSAT D 30 May 22:51:13 22:55:32 77° 73° (ENE) 22:59:49 437.325/437.525
UWE-3 30 May 22:52:06 22:56:38 48° 262° (W) 23:01:07 435.000/436.395/437.385
BEESAT 2 30 May 22:54:37 22:57:28 18° 5° (N) 23:00:20 435.950
ESTCUBE 1 30 May 22:55:53 22:59:57 35° 64° (ENE) 23:04:03 437.505/2401.250
Cosmos 2491 30 May 22:58:57 23:05:33 22° 315° (NW) 23:11:54 435.465 / 435.565
Cosmos 2504 30 May 23:04:45 23:10:58 31° 276° (W) 23:17:01 435.465 / 435.565
ANTELSAT 30 May 23:08:19 23:11:11 17° 87° (E) 23:14:07 437.575/2403.000
AISAT 30 May 23:08:42 23:13:09 69° 71° (ENE) 23:17:39 437.250
AIST 2 30 May 23:11:44 23:14:45 18° 357° (N) 23:17:45 435.215
GONETS M04 30 May 23:17:38 23:25:37 37° 59° (ENE) 23:33:37
DANDE 30 May 23:24:30 23:32:09 45° 61° (ENE) 23:38:23 436.750
UKube-1 30 May 23:25:35 23:29:50 52° 259° (W) 23:34:07 .
HO-68 30 May 23:26:17 23:30:14 15° 281° (W) 23:33:49 435.675
CUSAT 1 30 May 23:26:41 23:33:55 52° 65° (ENE) 23:39:37 437.405
CINEMA 3 30 May 23:31:03 23:33:50 14° 277° (W) 23:36:24 145.822/145.860
ZACube-1 30 May 23:33:43 23:37:37 26° 268° (W) 23:41:24 437.345
Cosmos 2499 30 May 23:36:48 23:38:14 11° 35° (NE) 23:39:56 435.465 / 435.565
Oscar 11 30 May 23:37:46 23:40:22 15° 274° (W) 23:42:51 145.826/435.025
BEESAT 3 30 May 23:38:04 23:41:18 21° 18° (NNE) 23:44:31 437.485
TIGRISAT 30 May 23:38:27 23:42:19 30° 94° (E) 23:46:08 435.000
NANOSAT C BR1 30 May 23:39:39 23:42:20 17° 87° (E) 23:45:08 145.865
O/OREOS (USA 219) 30 May 23:40:40 23:44:26 26° 43° (NE) 23:48:13 437.305
DX 1 30 May 23:41:12 23:45:16 36° 263° (W) 23:49:20 434.975-435.025
DELFI C3 30 May 23:41:22 23:43:56 16° 272° (W) 23:46:24 145.870
PCSat 30 May 23:43:01 23:44:54 12° 104° (ESE) 23:47:04 145.827
QB50P2 30 May 23:50:36 23:53:52 21° 90° (E) 23:57:11 145.880/145.840
CUBEBUG 2 30 May 23:53:10 23:55:49 14° 276° (W) 23:58:17 437.445
CUBEBUG 1 30 May 23:57:20 00:01:44 82° 255° (WSW) 00:06:12 437.445
DUCHIFAT 1 30 May 23:59:51 00:03:20 24° 92° (E) 00:06:51 145.980
ISS 31 May 00:00:20 00:03:10 28° 154° (SSE) 00:06:02 145.825
UNISAT 6 31 May 00:00:40 00:04:56 48° 99° (E) 00:09:07 437.425
POPSAT HIP 1 31 May 00:01:32 00:05:07 26° 92° (E) 00:08:44 437.405
BUGSAT 1 31 May 00:03:14 00:06:20 19° 89° (E) 00:09:29 437.445
VELOX 1 31 May 00:12:26 00:16:33 35° 264° (W) 00:20:41 145.980
ITUPSAT 1 31 May 00:12:46 00:14:47 13° 49° (NE) 00:16:57 437.325
BEESAT 31 May 00:17:12 00:19:31 14° 51° (NE) 00:22:00 436.000
SPROUT 31 May 00:19:12 00:23:27 55° 70° (ENE) 00:27:44 437.525
50 SAT 31 May 00:22:37 00:25:53 23° 267° (W) 00:29:06 437.505
TISAT 1 31 May 00:25:17 00:29:24 49° 69° (ENE) 00:33:34 437.305
SWISSCUBE 31 May 00:25:41 00:28:36 17° 53° (NE) 00:31:39 437.505
HUMSAT D 31 May 00:29:11 00:31:51 15° 273° (W) 00:34:23 437.325/437.525
ESTCUBE 1 31 May 00:32:38 00:36:49 36° 264° (W) 00:41:00 437.505/2401.250
BEESAT 2 31 May 00:32:56 00:36:40 31° 29° (NNE) 00:40:23 435.950
ANTELSAT 31 May 00:44:08 00:48:32 70° 288° (WNW) 00:52:49 437.575/2403.000
QB50P1 31 May 00:44:43 00:49:00 63° 102° (ESE) 00:53:13 145.935-145.965
AISAT 31 May 00:47:03 00:50:16 18° 272° (W) 00:53:22 437.250
POLYITAN 1 31 May 00:49:13 00:53:32 70° 103° (ESE) 00:57:47 437.675
AIST 2 31 May 00:51:06 00:54:37 24° 21° (NNE) 00:58:08 435.215
DANDE 31 May 01:08:00 01:15:39 52° 268° (W) 01:21:41 436.750
CUSAT 1 31 May 01:09:48 01:16:26 39° 272° (W) 01:21:40 437.405
NANOSAT C BR1 31 May 01:14:25 01:18:43 72° 288° (WNW) 01:22:57 145.865
GONETS M04 31 May 01:14:31 01:23:18 71° 265° (W) 01:31:56
TIGRISAT 31 May 01:15:05 01:19:12 39° 294° (WNW) 01:23:12 435.000
BEESAT 3 31 May 01:15:56 01:20:01 60° 40° (NE) 01:24:03 437.485
O/OREOS (USA 219) 31 May 01:19:48 01:24:14 63° 245° (WSW) 01:28:39 437.305
PCSat 31 May 01:22:03 01:27:22 60° 123° (ESE) 01:32:44 145.827
QB50P2 31 May 01:25:54 01:30:07 55° 290° (WNW) 01:34:18 145.880/145.840
Cosmos 2499 31 May 01:27:32 01:34:03 38° 64° (ENE) 01:40:40 435.465 / 435.565
DUCHIFAT 1 31 May 01:35:15 01:39:24 47° 292° (WNW) 01:43:29 145.980
ISS 31 May 01:36:03 01:39:17 60° 173° (S) 01:42:30 145.825
CUBEBUG 1 31 May 01:37:01 01:38:56 12° 276° (W) 01:40:40 437.445
POPSAT HIP 1 31 May 01:37:05 01:41:13 45° 292° (WNW) 01:45:17 437.405
UNISAT 6 31 May 01:37:50 01:41:31 26° 299° (WNW) 01:45:04 437.425
BUGSAT 1 31 May 01:37:57 01:42:12 60° 290° (WNW) 01:46:23 437.445
STARS 31 May 01:40:44 01:41:45 11° 49° (NE) 01:42:56 437.465
ITUPSAT 1 31 May 01:47:09 01:51:49 59° 69° (ENE) 01:56:33 437.325
Oscar 19 31 May 01:48:53 01:52:03 16° 85° (E) 01:55:21 437.125/150
BEESAT 31 May 01:51:52 01:56:35 66° 70° (ENE) 02:01:20 436.000
SPROUT 31 May 01:56:29 01:59:54 22° 270° (W) 02:03:14 437.525
SWISSCUBE 31 May 02:01:04 02:05:50 83° 73° (ENE) 02:10:37 437.505
TISAT 1 31 May 02:01:56 02:05:26 24° 268° (W) 02:08:55 437.305
BEESAT 2 31 May 02:10:57 02:15:04 65° 230° (SW) 02:19:06 435.950
KKS-1 31 May 02:20:35 02:24:27 29° 62° (ENE) 02:28:22 437.445
QB50P1 31 May 02:21:15 02:24:31 21° 301° (WNW) 02:27:40 145.935-145.965
ANTELSAT 31 May 02:22:31 02:24:35 13° 308° (NW) 02:26:30 437.575/2403.000
POLYITAN 1 31 May 02:25:55 02:29:01 19° 302° (WNW) 02:32:01 437.675
AIST 2 31 May 02:29:34 02:33:51 73° 43° (NE) 02:38:04 435.215
SO-50 31 May 02:42:30 02:46:11 23° 117° (ESE) 02:50:03 436.795
NANOSAT C BR1 31 May 02:51:49 02:53:51 13° 307° (NW) 02:55:45 145.865
DANDE 31 May 02:53:45 02:56:56 13° 291° (WNW) 02:59:31 436.750
BEESAT 3 31 May 02:54:19 02:57:44 25° 240° (WSW) 03:01:04 437.485
QB50P2 31 May 03:04:13 03:05:10 11° 310° (NW) 03:05:57 145.880/145.840
PCSat 31 May 03:05:58 03:11:04 40° 325° (NW) 03:16:11 145.827
Cosmos 2491 31 May 03:07:57 03:09:45 11° 22° (NNE) 03:11:50 435.465 / 435.565
ISS 31 May 03:12:20 03:15:31 50° 194° (SSW) 03:18:41 145.825
GONETS M04 31 May 03:12:49 03:18:41 20° 288° (WNW) 03:24:10
STARS 31 May 03:12:59 03:17:18 53° 69° (ENE) 03:21:41 437.465
BUGSAT 1 31 May 03:15:25 03:16:53 11° 309° (NW) 03:18:11 437.445
Gurwin Techsat 1B 31 May 03:16:14 03:20:44 28° 91° (E) 03:25:18 435.225
Cosmos 2499 31 May 03:20:41 03:27:33 55° 267° (W) 03:34:27 435.465 / 435.565
ITUPSAT 1 31 May 03:26:17 03:30:07 23° 269° (W) 03:33:54 437.325
Oscar 19 31 May 03:27:01 03:32:14 89° 106° (ESE) 03:37:24 437.125/150
BEESAT 31 May 03:31:16 03:34:55 21° 271° (W) 03:38:29 436.000
SWISSCUBE 31 May 03:41:15 03:44:23 17° 273° (W) 03:47:21 437.505
ITAMSAT 1 31 May 03:51:07 03:56:13 51° 99° (E) 04:01:20 435.822/435.867
BEESAT 2 31 May 03:51:16 03:52:25 11° 249° (WSW) 03:53:22 435.950
AO-7 31 May 03:53:08 03:57:49 16° 80° (E) 04:02:57 29.400- 29.500
KKS-1 31 May 03:56:36 04:00:56 45° 261° (W) 04:05:17 437.445
AIST 2 31 May 04:08:47 04:12:02 21° 243° (WSW) 04:15:11 435.215
SO-50 31 May 04:21:29 04:26:17 79° 317° (NW) 04:31:14 436.795
MOZHAYETS 4 31 May 04:22:05 04:26:20 40° 66° (ENE) 04:30:37
HORYU 2 31 May 04:35:17 04:38:54 24° 92° (E) 04:42:33 437.375
JAS-2 31 May 04:47:43 04:52:23 33° 94° (E) 04:57:11 435.910
ISS 31 May 04:49:04 04:51:28 19° 212° (SSW) 04:53:50 145.825
STARS 31 May 04:50:27 04:54:04 23° 268° (W) 04:57:39 437.465
PCSat 31 May 04:51:51 04:55:55 21° 350° (N) 04:59:59 145.827
Gurwin Techsat 1B 31 May 04:55:51 05:01:06 58° 292° (WNW) 05:06:19 435.225
Cosmos 2491 31 May 05:03:18 05:10:43 29° 53° (NE) 05:18:16 435.465 / 435.565
Oscar 19 31 May 05:07:16 05:11:01 20° 306° (NW) 05:14:38 437.125/150
Cosmos 2499 31 May 05:16:49 05:19:10 12° 289° (WNW) 05:21:06 435.465 / 435.565
ITAMSAT 1 31 May 05:30:57 05:35:35 33° 300° (WNW) 05:40:12 435.822/435.867
PRISM 31 May 05:38:59 05:40:49 13° 53° (NE) 05:42:48 437.425
AO-7 31 May 05:44:19 05:52:39 63° 104° (ESE) 06:00:57 29.400- 29.500
M-CUBED/EXP-1 PRIME 31 May 05:44:48 05:45:23 10° 48° (NE) 05:46:06 437.505
MOZHAYETS 4 31 May 05:59:32 06:03:39 32° 266° (W) 06:07:46
SO-50 31 May 06:03:14 06:07:31 29° 340° (NNW) 06:11:52 436.795
YUBILEINY 31 May 06:05:03 06:10:15 18° 72° (ENE) 06:15:49 435.215
STRAND 1 31 May 06:10:01 06:14:12 27° 58° (ENE) 06:18:29 437.568
HORYU 2 31 May 06:11:30 06:15:50 50° 292° (WNW) 06:20:07 437.375
AIST 1 31 May 06:12:51 06:14:53 13° 56° (NE) 06:17:05
CUBESAT XI-V 31 May 06:13:39 06:18:03 46° 67° (ENE) 06:22:32 437.345
JAS-2 31 May 06:32:49 06:37:46 44° 295° (WNW) 06:42:45 435.910
PCSat 31 May 06:36:55 06:41:10 23° 15° (NNE) 06:45:26 145.827
Gurwin Techsat 1B 31 May 06:37:21 06:40:08 14° 312° (NW) 06:42:46 435.225
CUTE-I 31 May 06:38:59 06:42:22 17° 85° (E) 06:45:56 437.470
Cosmos 2491 31 May 07:00:04 07:08:59 90° 261° (W) 07:17:48 435.465 / 435.565
Cubesat XI-IV 31 May 07:00:29 07:04:49 25° 90° (E) 07:09:15 437.490
PRISM 31 May 07:11:32 07:15:37 76° 73° (ENE) 07:19:45 437.425
M-CUBED/EXP-1 PRIME 31 May 07:15:51 07:19:42 61° 65° (ENE) 07:23:17 437.505
AUBIESAT-1 31 May 07:19:27 07:23:15 58° 65° (ENE) 07:26:48 437.475
AO-7 31 May 07:37:28 07:45:17 45° 307° (NW) 07:53:01 29.400- 29.500
SO-50 31 May 07:45:29 07:49:25 23° 4° (N) 07:53:23 436.795
STRAND 1 31 May 07:48:02 07:53:06 63° 258° (WSW) 07:58:12 437.568
AIST 1 31 May 07:48:59 07:53:24 78° 77° (ENE) 07:57:50
HORYU 2 31 May 07:50:53 07:51:34 10° 312° (NW) 07:52:04 437.375
